Flag for Canada Weather past 2 weeks in Igloolik, Nunavut, Canada

Now
1 °F

Passing clouds.


Feels Like: -13 °F
Forecast: 0 / 21 °F
Wind: 8 mph from Northwest

Location: Hall Beach

Current Time: Apr 28, 2015 at 11:21:39 AM

Latest Report: Apr 28, 2015 at 11:00 AM


Visibility: 15 mi

Pressure: 30.25 "Hg

Humidity: 92%

Dew point: 0 °F

Location of IgloolikLocation

Historic Weather in Igloolik — Graph

°F

Igloolik temperature yesterday

Maximum temperature yesterday: 19 °F (at 7:00 AM)
Minimum temperature yesterday: 5 °F (at 11:00 PM)
Average temperature yesterday: 17 °F

Past Weeks' High & Low Weather Summary

 TemperatureHumidityPressure
High19 °F (Apr 24, 1:00 PM)93% (Apr 23, 4:00 PM)30.66 "Hg (Apr 23, 4:00 PM)
Low-24 °F (Apr 14, 1:00 AM)63% (Apr 13, 11:00 AM)29.46 "Hg (Apr 13, 3:00 PM)
Average1 °F83%30.09 "Hg
* Reported Apr 13 10:00 AM — Apr 28 10:00 AM, Igloolik, Weather by CustomWeather, © 2015

Note: Actual official high and low records may vary slightly from our data, if they occured in-between our weather recording intervals... More about our weather records

Advertising

Igloolik weather history for previous 24 hours

 ConditionsComfort  
Time TempWeatherWind HumidityBarometerVisibility
10:00 AM
Tue, Apr 28
0 °FPassing clouds.8 mph84%30.24 "Hg15 mi
9:00 AM-4 °FPassing clouds.8 mph84%30.24 "Hg15 mi
8:00 AM-6 °FPassing clouds.8 mph84%30.24 "Hg15 mi
7:00 AM-8 °FSunny.10 mph84%30.22 "Hg9 mi
6:00 AM-8 °FSunny.13 mph84%30.22 "Hg9 mi
5:00 AM-8 °FClear.13 mph84%30.22 "Hg9 mi
4:00 AM-6 °FClear.10 mph84%30.22 "Hg9 mi
3:00 AM0 °FLight snow. Overcast.10 mph84%30.22 "Hg9 mi
2:00 AM5 °FLight snow. Overcast.9 mph85%30.21 "Hg9 mi
1:00 AM3 °FLight snow. Overcast.8 mph92%30.20 "Hg9 mi
12:49 AM5 °FLight snow. Overcast.8 mph85%30.20 "Hg9 mi
12:00 AM3 °FLow clouds.7 mph92%30.20 "Hg9 mi
11:00 PM
Mon, Apr 27
5 °FOvercast.7 mph85%30.20 "Hg9 mi
10:00 PM9 °FOvercast.12 mph92%30.19 "Hg9 mi
9:00 PM12 °FOvercast.10 mph92%30.18 "Hg9 mi
8:00 PM14 °FPartly sunny.12 mph92%30.17 "Hg15 mi
7:00 PM14 °FPartly sunny.13 mph92%30.17 "Hg15 mi
6:00 PM16 °FBroken clouds.9 mph86%30.16 "Hg15 mi
5:00 PM18 °FPartly sunny.12 mph86%30.16 "Hg15 mi
4:00 PM19 °FPartly sunny.12 mph86%30.15 "Hg15 mi
3:00 PM18 °FBroken clouds.12 mph86%30.15 "Hg15 mi
2:00 PM19 °FBroken clouds.14 mph79%30.14 "Hg15 mi
1:00 PM19 °FLight snow. Mostly cloudy.14 mph86%30.14 "Hg7 mi
12:00 PM19 °FLight snow. Ice fog.15 mph93%30.14 "Hg2 mi
11:00 AM19 °FLight snow. Ice fog.12 mph93%30.14 "Hg2 mi
Weather by CustomWeather, © 2015

See weather overviewHow to use our weather pages